YO3LAW-13 Weather Reports


time (UTC)temp
C
wind
direction
speed
KPH
gust
KPH
rain 1hr
cm
rain 24hr
cm
rain mn
cm
humidity
%
barometer
mb
20260508052635 15 234 0.0 6.4 0.00 0.03 0.00 85 1005.8
20260508051635 15 173 0.0 4.8 0.00 0.03 0.00 85 1005.6
20260508050635 15 16 4.8 6.4 0.00 0.03 0.00 85 1005.6
20260508045635 15 136 0.0 1.6 0.00 0.03 0.00 85 1005.5
20260508044635 15 98 1.6 6.4 0.00 0.03 0.00 85 1005.7
20260508043635 15 180 1.6 3.2 0.00 0.03 0.00 85 1005.6
20260508042635 15 345 0.0 6.4 0.00 0.03 0.00 88 1005.4
20260508041635 14 156 3.2 3.2 0.00 0.03 0.00 88 1005.3
20260508040635 13 144 0.0 4.8 0.00 0.03 0.00 89 1005.2
20260508035635 13 142 3.2 4.8 0.00 0.03 0.00 88 1005.0
20260508034635 13 48 0.0 3.2 0.00 0.03 0.00 88 1005.0
20260508033635 13 178 3.2 6.4 0.00 0.03 0.00 87 1004.9
20260508032635 13 174 0.0 4.8 0.00 0.03 0.00 86 1005.1
20260508031635 13 73 3.2 4.8 0.03 0.03 0.00 87 1005.0
20260508030635 13 197 6.4 6.4 0.03 0.03 0.00 87 1005.2
20260508025635 13 186 4.8 4.8 0.03 0.03 0.00 88 1005.0
20260508024635 13 342 3.2 4.8 0.03 0.03 0.00 87 1005.0
20260508023635 13 79 1.6 4.8 0.00 0.00 0.00 86 1004.9
20260508022635 13 208 3.2 6.4 0.00 0.00 0.00 85 1005.1
20260508021635 13 48 3.2 3.2 0.00 0.00 0.00 84 1005.0
20260508020635 13 339 3.2 4.8 0.00 0.00 0.00 83 1005.0
20260508015635 13 142 3.2 6.4 0.00 0.00 0.00 83 1005.2
20260508014635 13 111 1.6 4.8 0.00 0.00 0.00 83 1005.0
20260508013635 13 87 3.2 6.4 0.00 0.00 0.00 83 1005.1
20260508012635 13 261 0.0 8.0 0.00 0.00 0.00 83 1005.2
20260508011635 13 89 0.0 6.4 0.00 0.00 0.00 83 1005.0
20260508010635 13 176 1.6 6.4 0.00 0.00 0.00 83 1005.2
20260508005635 13 1 1.6 4.8 0.00 0.00 0.00 83 1005.2
20260508004635 13 189 0.0 6.4 0.00 0.00 0.00 82 1005.1
20260508003635 14 359 3.2 6.4 0.00 0.00 0.00 82 1005.1
20260508002635 14 111 3.2 4.8 0.00 0.00 0.00 81 1004.9
20260508001635 14 109 0.0 4.8 0.00 0.00 0.00 81 1005.1
20260508000635 15 104 0.0 3.2 0.00 0.00 0.00 81 1005.0
20260507235635 15 103 3.2 3.2 0.00 0.00 0.00 80 1005.1
20260507234635 15 65 0.0 4.8 0.00 0.00 0.00 80 1005.1
20260507233635 15 44 3.2 3.2 0.00 0.00 0.00 79 1005.1
20260507232635 15 65 0.0 6.4 0.00 0.00 0.00 80 1005.1
20260507231635 16 347 1.6 3.2 0.00 0.00 0.00 80 1005.0
20260507230635 16 50 0.0 0.0 0.00 0.00 0.00 80 1004.9
20260507225635 16 269 0.0 1.6 0.00 0.00 0.00 79 1005.0
20260507224635 16 38 0.0 3.2 0.00 0.00 0.00 79 1004.8
20260507223635 17 304 0.0 3.2 0.00 0.00 0.00 79 1004.8
20260507222635 17 130 1.6 3.2 0.00 0.00 0.00 78 1004.7
20260507221635 17 34 0.0 3.2 0.00 0.00 0.00 77 1004.8
20260507220635 18 246 0.0 0.0 0.00 0.00 0.00 75 1004.9
20260507215635 18 44 0.0 0.0 0.00 0.00 0.00 75 1004.8
20260507214635 18 44 0.0 0.0 0.00 0.00 0.00 74 1004.9
20260507213330 18 103 0.0 1.6 0.00 0.00 0.00 72 1004.8
20260507212330 18 200 0.0 0.0 0.00 0.00 0.00 72 1004.8
20260507211330 18 15 0.0 0.0 0.00 0.00 0.00 72 1004.9
20260507210330 18 269 0.0 1.6 0.00 0.00 0.00 73 1005.1
20260507205330 18 25 0.0 0.0 0.00 0.00 0.00 73 1005.2
20260507204330 18 135 0.0 0.0 0.00 0.00 0.00 73 1005.1
20260507203330 18 44 0.0 0.0 0.00 0.00 0.00 74 1005.2
20260507202330 18 269 0.0 0.0 0.00 0.00 0.00 73 1005.1
20260507201330 18 269 0.0 0.0 0.00 0.00 0.00 72 1005.2
20260507200330 19 44 0.0 0.0 0.00 0.00 0.00 70 1004.9
20260507195330 19 297 0.0 1.6 0.00 0.00 0.00 70 1005.1
20260507194330 19 62 0.0 0.0 0.00 0.00 0.00 70 1005.0
20260507193330 19 0 0.0 0.0 0.00 0.00 0.00 68 1005.0
20260507192330 20 269 0.0 0.0 0.00 0.00 0.00 66 1005.1
20260507191330 20 315 0.0 0.0 0.00 0.00 0.00 64 1005.0
20260507190330 20 120 0.0 1.6 0.00 0.00 0.00 63 1004.8
20260507185330 20 315 0.0 3.2 0.00 0.00 0.00 63 1004.7
20260507184330 20 22 0.0 1.6 0.00 0.00 0.00 62 1004.7
20260507183330 21 330 0.0 3.2 0.00 0.00 0.00 61 1004.7
20260507182330 21 104 0.0 3.2 0.00 0.00 0.00 60 1004.4
20260507181330 21 119 0.0 3.2 0.00 0.00 0.00 59 1004.5
20260507180330 21 117 0.0 3.2 0.00 0.00 0.00 56 1004.3
20260507175330 21 224 0.0 0.0 0.00 0.00 0.00 53 1004.4
20260507174330 21 10 0.0 1.6 0.00 0.00 0.00 54 1004.1
20260507173330 21 296 0.0 0.0 0.00 0.00 0.00 56 1004.0
20260507172330 22 124 0.0 0.0 0.00 0.00 0.00 53 1003.8
20260507171330 22 253 0.0 0.0 0.00 0.00 0.00 52 1003.7
20260507170330 22 11 0.0 1.6 0.00 0.00 0.00 49 1004.0
20260507165330 23 37 0.0 3.2 0.00 0.00 0.00 49 1003.9
20260507164330 23 147 0.0 0.0 0.00 0.00 0.00 45 1003.9
20260507163330 23 13 0.0 0.0 0.00 0.00 0.00 43 1004.1
20260507162330 24 188 0.0 3.2 0.00 0.00 0.00 41 1003.9
20260507161330 24 206 0.0 1.6 0.00 0.00 0.00 40 1004.0
20260507160330 25 135 0.0 0.0 0.00 0.00 0.00 39 1003.9
20260507155330 25 10 0.0 0.0 0.00 0.00 0.00 37 1004.0
20260507154330 25 32 0.0 0.0 0.00 0.00 0.00 37 1003.8
20260507153330 25 135 0.0 3.2 0.00 0.00 0.00 37 1004.0
20260507152330 25 89 0.0 3.2 0.00 0.00 0.00 37 1003.8
20260507151330 25 29 0.0 1.6 0.00 0.00 0.00 38 1003.9
20260507150330 25 127 0.0 3.2 0.00 0.00 0.00 36 1003.9
20260507145330 26 346 1.6 3.2 0.00 0.00 0.00 36 1003.9
20260507144330 26 142 0.0 3.2 0.00 0.00 0.00 37 1003.9
20260507143330 26 205 0.0 1.6 0.00 0.00 0.00 36 1004.1
20260507142330 26 167 0.0 3.2 0.00 0.00 0.00 36 1004.2
20260507141330 27 345 0.0 4.8 0.00 0.00 0.00 34 1004.2
20260507140330 27 20 0.0 3.2 0.00 0.00 0.00 34 1004.1
20260507135330 27 15 0.0 3.2 0.00 0.00 0.00 35 1004.3
20260507134330 26 18 1.6 3.2 0.00 0.00 0.00 36 1004.5
20260507133330 26 315 0.0 3.2 0.00 0.00 0.00 35 1004.5
20260507132330 26 75 0.0 1.6 0.00 0.00 0.00 37 1004.4
20260507131330 26 66 3.2 4.8 0.00 0.00 0.00 34 1004.5
20260507130330 26 25 0.0 3.2 0.00 0.00 0.00 33 1004.7
20260507125330 26 108 1.6 4.8 0.00 0.00 0.00 34 1004.7
20260507124330 26 346 0.0 6.4 0.00 0.00 0.00 32 1004.8
20260507123330 27 69 0.0 3.2 0.00 0.00 0.00 34 1004.8
20260507122330 27 322 1.6 3.2 0.00 0.00 0.00 33 1005.0
20260507121330 26 117 0.0 1.6 0.00 0.00 0.00 33 1005.0
20260507120330 26 303 1.6 4.8 0.00 0.00 0.00 35 1005.2
20260507115330 26 33 0.0 3.2 0.00 0.00 0.00 36 1005.2
20260507114330 26 139 1.6 3.2 0.00 0.00 0.00 35 1005.2
20260507113330 26 85 0.0 3.2 0.00 0.00 0.00 33 1005.4
20260507112330 26 249 0.0 1.6 0.00 0.00 0.00 35 1005.5
20260507111330 26 256 0.0 3.2 0.00 0.00 0.00 33 1005.2
20260507110330 26 217 0.0 4.8 0.00 0.00 0.00 33 1005.5
20260507105330 25 147 0.0 3.2 0.00 0.00 0.00 35 1005.6
20260507104330 25 49 0.0 3.2 0.00 0.00 0.00 34 1005.6
20260507103330 25 246 0.0 0.0 0.00 0.00 0.00 37 1005.8
20260507102330 25 123 1.6 6.4 0.00 0.00 0.00 34 1005.9
20260507101330 25 315 0.0 3.2 0.00 0.00 0.00 33 1005.8
20260507100330 25 0 0.0 3.2 0.00 0.00 0.00 34 1005.9
20260507095330 25 243 0.0 4.8 0.00 0.00 0.00 35 1005.9
20260507094330 25 319 0.0 4.8 0.00 0.00 0.00 35 1006.1
20260507093330 24 133 1.6 4.8 0.00 0.00 0.00 35 1006.0
20260507092330 24 52 0.0 3.2 0.00 0.00 0.00 34 1006.0
20260507091330 24 300 3.2 4.8 0.00 0.00 0.00 35 1006.1
20260507090330 23 320 3.2 4.8 0.00 0.00 0.00 37 1006.1
20260507085330 23 120 1.6 4.8 0.00 0.00 0.00 37 1006.2
20260507084330 22 82 3.2 3.2 0.00 0.00 0.00 38 1006.1
20260507083330 22 41 3.2 4.8 0.00 0.00 0.00 39 1006.1
20260507082330 21 235 0.0 1.6 0.00 0.00 0.00 41 1006.1
20260507081330 21 185 1.6 3.2 0.00 0.00 0.00 42 1006.1
20260507080330 20 106 3.2 3.2 0.00 0.00 0.00 43 1006.2
20260507075330 20 67 3.2 6.4 0.00 0.00 0.00 46 1005.8
20260507074330 20 161 3.2 6.4 0.00 0.00 0.00 46 1005.8
20260507073330 19 239 0.0 3.2 0.00 0.00 0.00 46 1005.9
20260507072330 18 327 1.6 4.8 0.00 0.00 0.00 51 1006.3
20260507071330 18 124 1.6 3.2 0.00 0.00 0.00 50 1006.2
20260507070330 18 195 0.0 3.2 0.00 0.00 0.00 53 1006.1
20260507065330 17 147 3.2 4.8 0.00 0.00 0.00 53 1006.0
20260507064330 17 27 3.2 6.4 0.00 0.00 0.00 55 1006.2
20260507063330 16 62 0.0 4.8 0.00 0.00 0.00 57 1006.1
20260507062330 15 148 1.6 6.4 0.00 0.00 0.00 58 1006.1
20260507061330 16 182 0.0 3.2 0.00 0.00 0.00 58 1005.8
20260507060330 15 107 3.2 6.4 0.00 0.00 0.00 62 1006.0
20260507055330 15 82 3.2 6.4 0.00 0.00 0.00 63 1006.0
20260507054330 14 195 0.0 1.6 0.00 0.00 0.00 67 1006.2